EST,Max TemperatureF,Mean TemperatureF,Min TemperatureF,Max Dew PointF,MeanDew PointF,Min DewpointF,Max Humidity, Mean Humidity, Min Humidity, Max Sea Level PressureIn, Mean Sea Level PressureIn, Min Sea Level PressureIn, Max VisibilityMiles, Mean VisibilityMiles, Min VisibilityMiles, Max Wind SpeedMPH, Mean Wind SpeedMPH, Max Gust SpeedMPH,PrecipitationIn, CloudCover, Events, WindDirDegrees
2013-12-1,57,40,24,38,31,24,99,78,40,30.36,30.18,30.03,10,10,7,6,0,,0.00,2,,259
2013-12-2,58,45,32,43,38,32,99,84,49,30.01,29.90,29.82,10,10,5,6,0,,0.00,5,,176
2013-12-3,54,42,30,48,41,30,100,88,74,29.99,29.94,29.87,10,10,7,6,1,,0.00,6,Rain,157
2013-12-4,61,56,51,57,54,47,100,95,83,30.10,30.04,29.98,10,6,0,6,2,,0.00,7,Fog-Rain,169
2013-12-5,65,60,56,65,61,57,100,99,90,30.14,30.09,30.05,10,6,0,10,5,17,0.00,8,Fog-Rain,196
2013-12-6,76,69,63,65,63,61,100,81,61,30.09,30.03,29.99,10,10,10,21,11,28,0.00,4,,196
2013-12-7,68,55,42,65,45,33,100,84,69,30.44,30.27,30.02,10,10,4,16,9,25,0.00,8,Rain,27
2013-12-8,41,36,32,33,32,28,100,89,65,30.44,30.38,30.29,10,7,2,14,8,18,0.00,8,Rain,34
2013-12-9,44,38,33,45,38,33,100,100,100,30.28,30.14,30.06,10,5,1,5,1,,0.00,8,Rain,210
2013-12-10,48,37,26,46,39,23,100,88,57,30.32,30.08,29.91,10,8,2,10,2,,0.00,5,Rain,343
2013-12-11,48,34,20,30,24,19,99,77,36,30.45,30.35,30.29,10,10,10,8,1,,0.00,0,,221
2013-12-12,43,33,22,27,20,11,99,68,27,30.42,30.34,30.28,10,10,10,10,2,17,0.00,0,,337
2013-12-13,50,34,18,31,21,14,95,70,27,30.38,30.32,30.27,10,10,10,10,1,,0.00,0,,210
2013-12-14,46,40,33,43,35,23,100,84,46,30.29,30.05,29.79,10,9,1,10,3,17,0.00,6,Rain,64
2013-12-15,52,40,28,42,34,27,100,79,46,30.08,29.89,29.72,10,7,1,13,3,18,0.00,3,Rain,291
2013-12-16,56,40,24,36,30,24,98,73,37,30.17,30.12,30.08,10,10,10,8,1,,0.00,0,,207
2013-12-17,59,44,28,37,32,28,100,66,37,30.12,30.03,29.89,10,10,10,13,3,22,0.00,1,,224
2013-12-18,49,38,26,30,20,14,83,50,24,30.29,30.21,30.04,10,10,10,9,5,,0.00,0,,314
2013-12-19,61,42,24,29,24,19,88,54,21,30.33,30.27,30.23,10,10,10,14,3,18,0.00,0,,200
2013-12-20,64,50,37,50,43,29,93,73,50,30.25,30.20,30.13,10,10,10,13,3,16,0.00,2,,206
2013-12-21,72,58,44,65,55,44,100,84,61,30.15,30.10,30.05,10,10,7,17,5,22,0.00,2,,189
2013-12-22,76,69,62,67,64,60,100,85,61,30.10,30.06,30.02,10,10,5,18,12,30,0.00,8,Rain,198
2013-12-23,64,54,44,64,57,34,100,94,67,30.16,30.08,30.01,10,10,2,10,6,23,0.00,8,Rain,232
2013-12-24,46,36,27,34,24,14,70,56,41,30.45,30.27,30.14,10,10,10,12,7,17,0.00,4,,340
2013-12-25,39,30,21,19,13,8,87,57,29,30.54,30.45,30.39,10,10,10,8,3,,0.00,0,,18
2013-12-26,51,38,24,29,25,20,92,68,33,30.38,30.32,30.25,10,10,7,7,1,,0.00,4,,300
2013-12-27,51,36,22,28,22,18,92,68,27,30.46,30.40,30.36,10,10,10,7,0,,0.00,0,,18
2013-12-28,56,38,21,39,27,20,95,67,27,30.40,30.32,30.15,10,10,10,6,1,,0.00,2,Rain,197
2013-12-29,53,45,37,50,44,33,100,95,59,30.13,29.87,29.74,10,8,0,12,4,24,0.00,6,Fog-Rain,245
2013-12-30,52,42,31,43,37,31,100,86,58,30.13,30.05,29.94,10,9,0,7,1,,0.00,3,Fog,341
2013-12-31,49,38,27,35,29,19,100,71,30,30.36,30.24,30.11,10,10,7,9,3,18,0.00,2,,322